C/2005 K1 (Skiff)

Epoch 2005 Nov. 6.0 TT = JDT 2453680.5  

T 2005 Nov. 21.21697 TT                                 Nakano

q   3.6928871            (2000.0)            P               Q

z  -0.0008913      Peri.  134.94341     +0.05415697     +0.34259866

 +/-0.0000012      Node   106.30497     -0.93587682     -0.31007259

e   1.0032913      Incl.   77.74769     +0.34814019     -0.88683772

From 597 observations 2005 May 16-2007 Aug. 6, mean residual 0".61.

   (1/a)org.= -0.000006, (1/a)fut.= -0.000093 (+/-0.000001), Q= 8.

Residuals in seconds of arc 

2005/                     050625 J78  1.2+  0.5-    050826 939  0.7+  0.1-  

050516 699 (1.9-  3.1+)   050625 J78  1.3+  1.9-    050827 D70  0.3+  0.9-  

050516 699 (2.5-  3.6+)   050625 232  0.1-  0.7+    050827 D70  0.4+  0.1-  

050516 699 (2.4-  2.2+)   050625 232  0.2-  1.0+    050827 D70  0.6-  0.5+  

050516 699  1.3-  1.7+    050625 232  0.2-  1.2+    050827 939  0.2-  0.5+  

050517 649  0.3-  0.3+    050625 213  0.4+  0.1-    050827 939  0.2+  0.4+  

050517 649  0.1-  0.2+    050625 213  0.5+  0.3-    050827 939  0.1+  0.2+  

050517 649  0.3-  0.3+    050625 213  0.5+  0.3-    050828 704  0.1+  1.0+  

050517 649  0.3-  0.3+    050625 939  0.0   0.1-    050828 704  0.2+  1.1+  

050517 J95  0.0   0.9+    050625 939  0.1+  0.7+    050828 704  0.3-  1.2+  

050517 J95  0.1+  0.4-    050625 939  0.2+  1.1+    050828 704  0.4-  0.1-  

050518 673  0.5+  1.3-    050626 213  0.4+  0.6-    050829 A30  0.4-  0.2-  

050518 673  0.6+  1.4-    050626 213  0.1+  0.2-    050829 A30  0.3-  0.2-  

050518 673  0.8+  1.3-    050627 157  0.1+  0.2-    050829 615  0.2-  0.4-  

050518 673  0.8+  1.3-    050627 157  0.1+  0.2-    050829 A30  0.3-  0.1-  

050518 H45  0.0   0.2+    050627 157  0.0   0.3-    050829 615  0.1-  0.4-  

050518 H45  0.9+  0.0     050627 157  0.1+  0.5-    050829 A30  0.3-  0.0   

050518 H45  0.8-  0.1+    050628 372  0.3-  0.2+    050829 A30  0.4-  0.1+  

050518 213  0.1+  0.1-    050628 372  0.8-  0.2-    050829 615  0.2-  0.4-  

050518 213  0.1-  0.0     050628 048  0.4-  0.5+    050829 215  0.6-  0.5-  

050518 213  0.1-  0.1+    050628 048  0.5-  0.5-    050829 215  0.2-  0.8-  

050518 213  0.2-  0.2+    050628 048  0.2-  1.1-    050829 215  0.2-  1.1-  

050518 J78  0.3+  0.1-    050628 048  0.4-  1.0-    050830 A32  0.2-  0.5+  

050518 J78  0.9+  0.2-    050628 048  0.7-  1.3-    050830 A32  0.4-  0.5+  

050518 J78  0.0   0.5+    050628 J97  0.1+  0.4-    050830 A32  0.4-  0.9+  

050519 704  0.2+  1.0-    050630 673  0.7+  0.9-    050830 A32  0.3-  0.3+  

050519 704  0.7-  0.0     050630 673  0.6+  1.1-    050830 213  0.3-  0.4-  

050519 704  0.6+  1.0+    050630 673  0.6+  1.0-    050830 213  0.4-  0.3-  

050519 918  0.8+  0.4-    050630 673  1.0+  0.9-    050830 213  0.4-  0.3-  

050519 918  0.1-  0.8-    050701 H42  1.1+  1.6+    050902 442 (2.1+  5.7-) 

050519 918  0.4+  0.0     050701 H42  0.8-  1.5-    050902 J97  0.0   0.3-  

050519 918  0.1+  0.8-    050701 H42  0.7+  0.4+    050902 442 (0.0   2.4-) 

050519 557  0.1-  0.0     050701 H42  0.9-  0.4-    050902 939  0.3-  0.9+  

050519 557  0.0   0.2+    050701 A32  0.1+  0.8+    050902 939  0.1+  0.5+  

050519 557  0.1-  0.2+    050701 A32  0.6-  1.4+    050902 939  0.1-  0.2+  

050519 213  0.4+  0.0     050702 673  0.7+  1.1-    050902 232  0.1-  0.3-  

050519 557  0.3-  0.2+    050702 673  0.6+  0.7-    050902 A10  0.7-  0.0   

050519 557  0.3-  0.2+    050702 673  0.5+  0.9-    050902 A10  0.4-  0.5-  

050519 213  0.4+  0.3-    050702 673  0.8+  1.0-    050903 442 (1.2+  4.7-) 

050519 557  0.2-  0.3+    050702 J78  0.4-  0.2-    050903 939  0.2+  0.6+  

050519 213  0.1+  0.5-    050702 J78  0.0   0.3-    050903 939  0.1+  0.9+  

050520 704  0.9+  0.1-    050702 J78  0.6+  0.4-    050903 939  0.0   1.1+  

050520 704  0.5+  1.0-    050702 939  0.2-  1.0+    050903 A01  0.5-  0.6-  

050520 H45  0.4+  0.2-    050702 939  0.9-  1.0+    050903 A01  1.1-  1.3+  

050520 704  0.2-  0.9-    050702 939  1.2-  0.8+    050908 D88  0.9-  0.1-  

050520 H45  0.9+  0.1+    050702 213  0.2+  0.0     050908 D88  0.1-  0.2-  

050520 H45  0.1+  0.3+    050702 213  0.5+  0.4-    050909 D83  0.3-  0.3+  

050520 H45  0.8+  1.4+    050702 213  0.5+  0.7-    050909 D83  0.5-  0.5-  

050520 704  0.1+  0.4+    050703 442  0.4+  0.4-    050909 D83  0.7-  0.3+  

050520 372  0.7+  0.0     050703 442 (2.5+  1.4-)   050909 939  0.4-  0.7+  

050520 372  0.9-  0.2-    050703 442 (5.0+  1.4-)   050909 939  0.1-  0.2+  

050520 557  0.4-  0.1-    050703 442 (5.2+  2.3-)   050909 442  0.5-  0.3-  

050520 A10 (0.3+  2.1-)   050704 J76  0.3+  0.5-    050909 442  0.6-  0.2+  

050520 557  0.1+  0.0     050704 J76  0.6+  0.6-    050909 939  0.3+  0.1-  

050520 557  0.2-  0.1+    050704 J76  0.7+  0.8-    050909 442  0.5-  0.2+  

050520 557  0.0   0.1+    050704 J78  0.1-  1.0-    050909 232  1.7-  1.2+  

050520 557  0.3-  0.1+    050704 J78  0.1-  1.1-    050909 232 (2.3-  0.2+) 

050520 557  0.1-  0.2+    050704 J78  0.2-  1.2-    050910 A10  0.7+  0.0   

050520 213  0.1-  0.2+    050706 J78  0.4-  0.6-    050911 J97  0.4+  0.7-  

050520 213  0.1+  0.2+    050706 J78  0.1-  0.8-    050911 213  0.2-  0.4-  

050520 213  0.1+  0.1+    050706 J78  0.9+  0.2-    050911 213  0.1-  0.4-  

050520 232  0.2-  0.7+    050707 649  0.0   0.1+    050911 213  0.0   0.3-  

050520 232  0.2-  0.3+    050707 649  0.2-  0.4+    050912 204  0.3-  0.8-  

050520 232  0.2+  0.6+    050707 649  0.3-  0.3+    050912 204  0.2+  0.4-  

050521 J95  0.4-  0.0     050708 A79  0.1-  0.2-    050913 J97 (6.1-  6.5+) 

050521 J95  0.0   0.4-    050708 A79  0.4-  0.1+    050915 704  0.3-  0.1-  

050521 J95  0.3+  0.2+    050708 A79  0.3-  0.2-    050915 704  0.8+  0.3+  

050522 J95  0.3-  1.0+    050709 A79  0.1-  0.3-    050915 704  0.2+  0.0   

050522 J95  0.4-  0.9+    050709 A79  0.2-  0.7-    050915 704  1.0-  0.0   

050522 J95  0.5-  0.8+    050710 A32  0.3-  1.2+    050915 704  0.6-  0.1+  

050523 699 (0.5-  2.0+)   050710 A32  1.1+  0.7-    050917 349  0.4-  1.2+  

050523 699  0.4-  1.3+    050711 H42  0.0   0.8+    050917 349  0.7-  1.1+  

050523 699  1.2-  0.2+    050711 785  1.1+  1.1-    050917 349  0.4-  1.2+  

050525 349  0.1+  0.2-    050711 785  0.5-  1.0-    050918 349  0.1+  0.1+  

050525 349  0.2-  0.2-    050711 H42  0.2+  0.1-    050918 349  0.4-  0.5+  

050525 349  0.0   0.1+    050711 H42  0.1-  0.4+    050918 118  0.0   0.0   

050525 595  1.1-  0.4+    050712 A32  0.0   0.3-    050918 118  0.0   0.2-  

050525 595  0.4-  0.3+    050712 A32  0.0   0.2+    050918 118  0.3+  0.6-  

050525 595  0.1+  0.1-    050712 785  0.0   0.7+    050918 118  0.8-  0.3-  

050525 595  0.2-  0.4+    050712 785  0.7+  0.0     050918 118  0.4-  0.9-  

050525 595  0.4-  0.4-    050712 785  1.6+  0.1-    050918 J97  0.4-  0.8-  

050525 213  0.4+  0.1-    050712 785  1.4+  0.6-    050920 J97  0.6-  0.3-  

050525 213  0.7+  0.1-    050712 104  0.3+  0.5-    050920 A32  1.0-  0.7-  

050525 213  0.1+  0.4+    050712 104  0.0   0.0     050922 A32  0.1-  1.4+  

050526 H45  0.3-  1.1+    050712 104  1.3+  0.4-    050922 A32  0.1-  0.6+  

050526 H45  0.1+  0.3+    050712 104  0.3+  0.3-    050922 A32  0.0   0.2+  

050526 H45  0.5+  0.4-    050712 A32  0.4-  0.8+    050923 442 (6.8+  7.3+) 

050526 048  0.1-  0.9+    050712 A32  0.5-  0.8+    050923 442 (6.9-  6.0-) 

050526 048  0.7+  0.4+    050712 A32  0.4-  1.0+    050930 442  0.1-  0.4+  

050526 048  0.5-  0.2-    050712 A32  0.7-  1.4+    050930 442  0.0   1.0-  

050526 048  0.2+  0.1-    050715 J97  1.4+  0.0     050930 442  0.3-  0.3+  

050526 048  0.7+  1.3-    050715 442  1.3+  0.1+    051001 118  1.1-  0.8-  

050526 461  0.4+  0.5-    050715 442  0.3+  0.3-    051001 118  0.4-  0.7-  

050526 461  0.3+  0.5-    050716 232  1.1-  0.5+    051001 118  1.3-  0.3-  

050526 461  0.5+  0.6-    050717 232  0.7-  0.0     051001 118  0.4-  0.2-  

050526 461  0.2+  0.5-    050717 232  0.3+  0.2-    051001 J97  0.6-  0.4-  

050527 461  0.5+  0.6-    050717 673  0.6+  1.1-    051002 J97  1.1-  0.0   

050527 461  0.5+  0.5-    050717 673  0.4+  0.9-    051003 A50  0.3-  0.4+  

050527 349  0.7-  0.2-    050717 673  0.5+  0.8-    051003 A50  0.3-  0.4+  

050527 349  0.5-  0.1-    050717 673  0.3+  0.3-    051003 A50 (0.2-  3.3+) 

050527 349  0.2-  0.1+    050718 213  0.2+  0.3-    051003 A50  0.2-  0.6+  

050527 442  0.6-  1.3-    050718 213  0.3+  0.3-    051003 A50  0.5+  0.2-  

050527 442  0.1-  0.1+    050718 213  0.4+  0.2-    051004 A32  0.5-  0.2+  

050527 048  0.3+  0.6+    050718 J97  0.1+  0.1-    051004 A32  0.7-  0.4+  

050527 048  0.9+  0.4-    050718 J97  0.1+  0.5+    051004 A32  0.4-  0.0   

050527 048  0.5+  0.3-    050724 J97  0.1-  0.1+    051004 561  0.3+  1.4-  

050527 048  0.4+  0.2+    050724 118  0.2+  0.4-    051004 561  0.5-  1.0-  

050527 048  0.1-  0.1-    050724 118  0.2+  0.2-    051004 561  0.3+  0.3-  

050527 213  0.0   0.6+    050724 118  0.0   0.3-    051005 J97  0.9-  0.2-  

050527 213  0.1-  0.4+    050724 118  0.1+  0.2-    051006 A32  0.6-  0.2+  

050528 A32  0.3-  0.9+    050724 118  0.2+  0.4-    051006 A32  0.2-  1.0+  

050528 A32  0.3-  0.6+    050726 A32  0.5-  0.8+    051006 A32  0.1+  1.1+  

050528 104  0.1+  0.3-    050727 A32  0.6-  0.9+    051006 A32  0.1+  0.7+  

050528 104  0.4-  0.1-    050727 A32  0.5-  1.0+    051006 A32  0.4-  0.4+  

050528 104  0.2+  0.4-    050727 A32  0.2-  0.6+    051007 A33  0.3-  0.7-  

050528 130  0.5+  1.2+    050728 H42  0.7-  0.7+    051007 A33  0.6-  0.5-  

050528 130  0.5+  0.2-    050728 H42  0.9-  0.4+    051008 A33  0.3-  0.5-  

050528 130  0.1-  0.1-    050728 H42  1.2-  0.9+    051008 A33  1.1-  0.7-  

050528 130  0.5+  0.0     050728 213  0.2+  0.8-    051010 703 (1.1-  4.3+) 

050528 048  0.4-  0.6-    050728 213  0.6+  0.9-    051010 703 (0.7-  4.2+) 

